Regional Weather Roundup
Issued by NWS Newport/Morehead, NC

Current Version | Previous Version | Text Only | Print | Product List | Glossary On
Versions: 1 2 3 4 5 6 7 8 9 10 11 12 13 14 15 16 17 18 19 20 21 22 23 24 25 26 27 28 29 30 31 32 33 34 35 36 37 38 39 40 41 42 43 44 45 46 47 48 49 50
000 ASUS42 KMHX 050125 RWRMHX WEATHER ROUNDUP FOR EASTERN NORTH CAROLINA NATIONAL WEATHER SERVICE NEWPORT/MOREHEAD CITY NC 900 PM EDT FRI SEP 04 2015 NOTE: "FAIR" INDICATES FEW OR NO CLOUDS BELOW 12,000 FEET WITH NO SIGNIFICANT WEATHER AND/OR OBSTRUCTIONS TO VISIBILITY NCZ015>017-031-032-045>047-102-103-050200- NORTH COAST CITY SKY/WX TMP DP RH WIND PRES REMARKS EDENTON MOCLDY 73 69 87 CALM 30.03R ELIZABETH CITY PTCLDY 78 71 79 NE9 30.03R KITTY HAWK PTCLDY 79 71 76 NE9G17 30.01R MANTEO MOCLDY 78 72 81 E16 30.01R $$ NCZ045>047-081-094-103-104-050200- CENTRAL COAST CITY SKY/WX TMP DP RH WIND PRES REMARKS FRISCO PTCLDY 79 72 79 NE10G16 29.98R SWANQUARTER N/A 77 N/A N/A NE6 29.97S $$ NCZ095-097-098-100-101-050200- SOUTHERN COAST CITY SKY/WX TMP DP RH WIND PRES REMARKS BEAUFORT MOCLDY 79 75 87 NE7 30.00R CEDAR ISLAND N/A 81 N/A N/A N16G22 30.03S JACKSONVILLE CLOUDY 81 69 67 N6 30.00R PINEY ISLAND MOCLDY N/A N/A N/A NE14 29.99R WILMINGTON MOCLDY 79 69 71 N15 30.01R $$ NCZ011>013-027>030-043-044-078>080-089-090>093-098-050200- COASTAL PLAIN CITY SKY/WX TMP DP RH WIND PRES REMARKS AHOSKIE MOCLDY 73 70 90 CALM 30.05R CLINTON DRIZZLE 73 73 99 NW3 30.01R ELIZABETHTOWN LGT RAIN 73 71 95 CALM 30.01R GOLDSBORO CLOUDY 75 71 88 CALM 30.01R GREENVILLE MOCLDY 77 72 83 NE5 30.05R FOG HAVELOCK MOCLDY 76 71 85 NE7 30.00R KENANSVILLE N/A 74 68 79 CALM 30.02R KINSTON CLOUDY 77 70 78 NE6 30.02R NEW BERN MOCLDY 78 71 79 NE6 30.02R RICHLANDS CLOUDY 79 66 65 CALM 30.02R ROCKY MOUNT MOCLDY 75 70 84 N3 30.03R WASHINGTON MOCLDY 74 70 87 CALM 30.03R WHITEVILLE LGT RAIN 72 67 83 CALM 30.00R $$ AMZ130-135-150-152-154-156-158-170-250-252-270-ANZ085-086-088-633-658-670-050200- MARINE OBSERVATIONS STATION/POSITION TIME TEMP WIND PRES WAVE SWELL AIR SEA DIR/SP/G HT/PER HT/PER (UTC) (F) (DEG/KT/KT) (MB) (FT/S) (FT/S) CHESAPEAKE LIGHT 0100 80 70/ 20/ 22 1017.5 64 E VA BEACH 0050 80 80 60/ 16/ 19 1016.1 3/ 5 2/ 8 DUCK 0100 80 81 50/ 19/ 21 1015.8 2 E DUCK 0011 80 N/A 3/ 4 OREGON INLET 0100 80 83 40/ 15/ 18 1015.8 13E OREGON INLT 0100 81 N/A 3/ 4 HATTERAS CG 0100 81 84 50/ 8/ 14 1015.1 DIAMOND BUOY 0050 82 84 30/ 16/ 19 1014.8 2/ 3 2/11 CAPE LOOKOUT 0100 81 40/ 16/ 19 1015.2 BEAUFORT LAB 0100 80 83 20/ 5/ 8 1015.0 30 SE NEW RVR IN 0008 83 83 220/ 4/ 4 1014.8 30 SE NEW RVR IN 0025 83 N/A 1/13 27 SE WRIGHTSVLE 0100 79 83 200/ 2/ 2 N/A 5 SE WRIGHTSVLE 0008 83 83 240/ 4/ 6 1014.8 225 S CAPE HAT 0050 83 85 10/ 10/ 12 1013.7 1/11 2/11 41 SE CHARLESTON 0050 82 84 60/ 4/ 6 1014.8 1/10 2/10 $$

USA.gov is the U.S. government's official web portal to all federal, state and local government web resources and services.